Weather History for Deadhorse, AK

Change the Weather History Date:

Friday, January 25, 2013

  Actual Average Record
Temperature  
Mean Temperature -20 °F -  
Max Temperature -17 °F -8 °F 100 °F (1998)
Min Temperature -23 °F -21 °F -55 °F (1989)
Degree Days  
Heating Degree Days 85    
Moisture  
Dew Point -27 °F    
Average Humidity 72    
Maximum Humidity 76    
Minimum Humidity 69    
Precipitation  
Precipitation 0.00 in - - ()
Sea Level Pressure  
Sea Level Pressure 30.28 in    
Wind  
Wind Speed 17 mph (WSW)    
Max Wind Speed 28 mph    
Max Gust Speed 36 mph    
Visibility 2 miles    
Events Fog , Snow    
Averages and records for this station are not official NWS values.
T = Trace of Precipitation, MM = Missing Value Source: NWS Daily Summary

Daily Weather History Graph

Daily Weather History Graph

Search for Another Location

Airport:

Trip Planner

Search our weather history database for the weather conditions in past years. The results will help you decide how hot, cold, wet, or windy it might be!

Date:

Astronomy

Jan. 25, 2013 Rise Set
Actual Time 11:21 AM AKST 2:51 PM AKST
Civil Twilight 9:39 AM AKST 4:34 PM AKST
Nautical Twilight 8:15 AM AKST 5:58 PM AKST
Astronomical Twilight 7:02 AM AKST 7:11 PM AKST
Moon 2:05 PM AKST (1/25) 10:06 AM AKST (1/25)
Length of Visible Light 6h 55m
Length of Day
3h 30m
Waxing Gibbous, 98% of the Moon is Illuminated
Jan 25
Waxing Gibbous
Jan 26
Full
Feb 3
Last Quarter
Feb 9
New
Feb 17
First Quarter

Hourly Weather History & Observations

Time (AKST) Temp. Windchill Dew Point Humidity Pressure Visibility Wind Dir Wind Speed Gust Speed Precip Events Conditions
12:53 AM -20.9 °F -45.3 °F -27.0 °F 73% 30.35 in 3.0 mi West 13.8 mph - N/A Snow Light Snow
1:14 AM -20.2 °F -45.2 °F -27.4 °F 69% 30.34 in 1.8 mi West 15.0 mph - N/A Snow Light Snow
1:53 AM -20.0 °F -42.2 °F -26.0 °F 74% 30.36 in 1.8 mi West 11.5 mph - N/A Snow Light Snow
2:53 AM -20.0 °F -39.9 °F -26.0 °F 74% 30.36 in 3.0 mi West 9.2 mph - N/A Snow Light Snow
3:53 AM -23.1 °F -43.7 °F -29.0 °F 74% 30.36 in 10.0 mi West 9.2 mph - N/A   Mostly Cloudy
4:53 AM -22.0 °F -43.6 °F -27.9 °F 74% 30.37 in 8.0 mi West 10.4 mph - N/A   Overcast
5:53 AM -23.1 °F -47.1 °F -29.0 °F 74% 30.38 in 9.0 mi West 12.7 mph - N/A   Overcast
6:53 AM -20.9 °F -44.3 °F -27.0 °F 73% 30.37 in 6.0 mi West 12.7 mph - N/A   Overcast
7:53 AM -20.9 °F -44.3 °F -27.0 °F 73% 30.37 in 5.0 mi WSW 12.7 mph - N/A   Overcast
8:53 AM -20.9 °F -46.2 °F -27.9 °F 70% 30.37 in 5.0 mi WSW 15.0 mph - N/A   Overcast
9:37 AM -20.2 °F -48.2 °F -27.4 °F 69% 30.35 in 1.5 mi SW 19.6 mph - N/A Snow Blowing Snow
9:53 AM -22.0 °F -46.6 °F -29.0 °F 70% 30.36 in 3.0 mi WSW 13.8 mph - N/A Snow Blowing Snow
10:42 AM -23.8 °F -54.3 °F -29.2 °F 76% 30.34 in 1.0 mi SW 21.9 mph - N/A Snow Blowing Snow
10:53 AM -22.0 °F -51.9 °F -29.0 °F 70% 30.35 in 0.8 mi WSW 21.9 mph - N/A Snow Blowing Snow
10:55 AM -22.0 °F -51.9 °F -29.2 °F 69% 30.33 in 1.2 mi SW 21.9 mph - N/A Snow Blowing Snow
11:10 AM -22.0 °F -53.1 °F -29.2 °F 69% 30.33 in 0.8 mi WSW 24.2 mph - N/A Snow Blowing Snow
11:53 AM -20.9 °F -51.6 °F -27.9 °F 70% 30.32 in 0.5 mi SW 24.2 mph - N/A Fog , Snow Light Snow
12:53 PM -22.0 °F -53.1 °F -27.9 °F 74% 30.31 in 0.5 mi WSW 24.2 mph - N/A Fog , Snow Light Snow
1:15 PM -22.0 °F -53.1 °F -29.2 °F 69% 30.29 in 0.5 mi WSW 24.2 mph - N/A Fog , Snow Light Snow
1:53 PM -20.9 °F -52.2 °F -27.9 °F 70% 30.29 in 0.5 mi WSW 25.3 mph - N/A Fog , Snow Light Snow
2:26 PM -20.2 °F -50.7 °F -27.4 °F 69% 30.26 in 0.5 mi WSW 24.2 mph - N/A Fog , Snow Light Snow
2:33 PM -20.2 °F -50.7 °F -27.4 °F 69% 30.26 in 0.5 mi WSW 24.2 mph - N/A Fog , Snow Light Snow
2:53 PM -20.0 °F -50.4 °F -26.0 °F 74% 30.26 in 0.5 mi WSW 24.2 mph - N/A Fog , Snow Light Snow
2:55 PM -20.2 °F -50.7 °F -25.6 °F 76% 30.25 in 0.2 mi WSW 24.2 mph - N/A Fog , Snow Light Snow
3:15 PM -18.4 °F -49.4 °F -25.6 °F 70% 30.24 in 0.2 mi WSW 26.5 mph - N/A Fog , Snow Light Snow
3:53 PM -18.9 °F -50.6 °F -25.1 °F 74% 30.24 in 0.5 mi WSW 27.6 mph 35.7 mph N/A Fog , Snow Light Snow
4:53 PM -18.9 °F -50.1 °F -25.1 °F 74% 30.22 in 0.5 mi WSW 26.5 mph - N/A Fog , Snow Light Snow
5:24 PM -18.4 °F -48.8 °F -25.6 °F 70% 30.20 in 0.5 mi WSW 25.3 mph - N/A Fog , Snow Light Snow
5:43 PM -18.4 °F -48.8 °F -25.6 °F 70% 30.19 in 0.5 mi WSW 25.3 mph - N/A Fog , Snow Light Snow
5:53 PM -18.9 °F -49.0 °F -25.1 °F 74% 30.20 in 0.5 mi WSW 24.2 mph - N/A Fog , Snow Light Snow
6:53 PM -18.0 °F -47.2 °F -25.1 °F 70% 30.18 in 0.5 mi WSW 23.0 mph - N/A Fog , Snow Light Snow
7:53 PM -18.0 °F -45.4 °F -24.0 °F 74% 30.17 in 0.5 mi West 19.6 mph - N/A Fog , Snow Light Snow
8:12 PM -18.4 °F -45.2 °F -23.8 °F 76% 30.15 in 1.2 mi West 18.4 mph - N/A Snow Blowing Snow
8:53 PM -18.0 °F -45.4 °F -24.0 °F 74% 30.16 in 1.2 mi West 19.6 mph - N/A Snow Blowing Snow
9:19 PM -18.4 °F -45.9 °F -23.8 °F 76% 30.14 in 2.0 mi West 19.6 mph - N/A Snow Blowing Snow
9:53 PM -17.0 °F -43.3 °F -23.1 °F 74% 30.15 in 1.5 mi West 18.4 mph - N/A Snow Light Snow
10:53 PM -17.0 °F -41.1 °F -23.1 °F 74% 30.17 in 3.0 mi West 15.0 mph - N/A Snow Blowing Snow
11:53 PM -17.0 °F -36.1 °F -24.0 °F 70% 30.19 in 7.0 mi WNW 9.2 mph - N/A   Overcast